THY2BK LTFM-LTAC

Flight info

Callsign THY2BK
Flight time N/A
Altitude 29000
Route VICEN T380 ASMAP L333 LATGA
Aircraft B77W/H-SDE1E2E3FGHIJ2J3J4J5M1RWXY/LB1D1

Departure

Time 2026-05-01 12:42
Airport İstanbul Airport (LTFM)

Arrival

Time N/A
Airport Esenboğa International Airport (LTAC)
Time Latitude Longitude Altitude Speed Heading
2026-05-01 11:20 41.25725 28.74932 339 ft 0 kts
2026-05-01 12:26 41.25708 28.74932 334 ft 4 kts 359°
2026-05-01 12:26 41.25681 28.74934 339 ft 4 kts 351°
2026-05-01 12:27 41.25658 28.74942 339 ft 4 kts 327°
2026-05-01 12:27 41.25645 28.74980 339 ft 4 kts 270°
2026-05-01 12:28 41.25637 28.75038 339 ft 4 kts 322°
2026-05-01 12:28 41.25627 28.75044 339 ft 4 kts 359°
2026-05-01 12:28 41.25573 28.75045 333 ft 3 kts 359°
2026-05-01 12:29 41.25570 28.75045 339 ft 0 kts 359°
2026-05-01 12:33 41.25576 28.75045 334 ft 3 kts 359°
2026-05-01 12:33 41.25612 28.75046 339 ft 2 kts
2026-05-01 12:33 41.25625 28.75055 339 ft 2 kts 33°
2026-05-01 12:34 41.25633 28.75070 339 ft 2 kts 60°
2026-05-01 12:34 41.25639 28.75090 339 ft 3 kts 72°
2026-05-01 12:34 41.25645 28.75136 334 ft 7 kts 82°
2026-05-01 12:34 41.25648 28.75186 339 ft 5 kts 88°
2026-05-01 12:35 41.25649 28.75232 334 ft 5 kts 88°
2026-05-01 12:35 41.25649 28.75279 339 ft 5 kts 89°
2026-05-01 12:35 41.25650 28.75325 339 ft 5 kts 89°
2026-05-01 12:35 41.25655 28.75371 339 ft 5 kts 66°
2026-05-01 12:36 41.25684 28.75394 334 ft 5 kts 17°
2026-05-01 12:36 41.25719 28.75399 339 ft 5 kts
2026-05-01 12:36 41.25753 28.75401 336 ft 5 kts
2026-05-01 12:36 41.25788 28.75401 339 ft 5 kts 360°
2026-05-01 12:37 41.25823 28.75401 335 ft 5 kts 360°
2026-05-01 12:37 41.25858 28.75400 339 ft 5 kts 359°
2026-05-01 12:37 41.25893 28.75399 339 ft 5 kts 359°
2026-05-01 12:37 41.25928 28.75399 339 ft 5 kts 359°
2026-05-01 12:38 41.25963 28.75398 339 ft 5 kts 359°
2026-05-01 12:38 41.25998 28.75397 339 ft 5 kts 359°
2026-05-01 12:38 41.26034 28.75396 339 ft 7 kts 359°
2026-05-01 12:38 41.26121 28.75394 339 ft 12 kts 359°
2026-05-01 12:39 41.26192 28.75392 339 ft 8 kts 359°
2026-05-01 12:39 41.26238 28.75421 333 ft 7 kts 56°
2026-05-01 12:39 41.26247 28.75491 337 ft 8 kts 86°
2026-05-01 12:39 41.26249 28.75567 337 ft 9 kts 88°
2026-05-01 12:40 41.26251 28.75637 336 ft 2 kts 87°
2026-05-01 12:40 41.26252 28.75641 339 ft 1 kts 73°
2026-05-01 12:40 41.26259 28.75647 339 ft 2 kts 36°
2026-05-01 12:40 41.26285 28.75660 339 ft 6 kts 14°
2026-05-01 12:41 41.26333 28.75665 339 ft 5 kts
2026-05-01 12:41 41.26404 28.75666 335 ft 24 kts
2026-05-01 12:41 41.26828 28.75658 337 ft 104 kts 359°
2026-05-01 12:41 41.27816 28.75651 352 ft 175 kts
2026-05-01 12:42 41.29026 28.75624 1267 ft 161 kts
2026-05-01 12:42 41.30092 28.75975 2161 ft 162 kts 37°
2026-05-01 12:42 41.30843 28.77249 2518 ft 187 kts 58°
2026-05-01 12:42 41.31601 28.78802 2819 ft 216 kts 44°
2026-05-01 12:43 41.32995 28.79715 3332 ft 232 kts 16°
2026-05-01 12:43 41.34566 28.80392 4116 ft 242 kts 21°
2026-05-01 12:43 41.36118 28.81292 5110 ft 245 kts 25°
2026-05-01 12:43 41.37545 28.82551 5912 ft 253 kts 48°
2026-05-01 12:44 41.38324 28.84662 6845 ft 261 kts 76°
2026-05-01 12:44 41.38421 28.87092 7653 ft 267 kts 90°
2026-05-01 12:44 41.36729 28.91652 9140 ft 288 kts 124°
2026-05-01 12:45 41.34280 28.95984 10722 ft 306 kts 126°
2026-05-01 12:45 41.32939 28.98365 10971 ft 337 kts 126°
2026-05-01 12:45 41.31492 29.00951 11507 ft 356 kts 127°
2026-05-01 12:46 41.30000 29.03636 12401 ft 365 kts 127°
2026-05-01 12:46 41.28502 29.06343 13472 ft 370 kts 127°
2026-05-01 12:46 41.26970 29.09123 14518 ft 376 kts 128°
2026-05-01 12:46 41.25408 29.11965 15486 ft 384 kts 128°
2026-05-01 12:47 41.23813 29.14867 16417 ft 392 kts 129°
2026-05-01 12:47 41.22188 29.17826 17341 ft 400 kts 129°
2026-05-01 12:47 41.20814 29.20327 18114 ft 405 kts 129°
2026-05-01 12:47 41.19137 29.23376 19009 ft 412 kts 130°
2026-05-01 12:48 41.17433 29.26473 19924 ft 417 kts 130°
2026-05-01 12:48 41.15710 29.29602 20847 ft 421 kts 130°
2026-05-01 12:48 41.13972 29.32759 21739 ft 426 kts 131°
2026-05-01 12:48 41.12214 29.35945 22581 ft 430 kts 131°
2026-05-01 12:49 41.10434 29.39168 23405 ft 435 kts 131°
2026-05-01 12:49 41.08635 29.42422 24173 ft 439 kts 132°
2026-05-01 12:49 41.06824 29.45697 25064 ft 439 kts 132°
2026-05-01 12:49 41.05029 29.48942 26113 ft 434 kts 133°
2026-05-01 12:50 41.03257 29.52148 27216 ft 428 kts 133°
2026-05-01 12:50 41.01508 29.55305 28216 ft 423 kts 133°
2026-05-01 12:50 40.99759 29.58451 28928 ft 426 kts 134°
2026-05-01 12:50 40.97998 29.61612 29190 ft 427 kts 134°
2026-05-01 12:51 40.94514 29.67864 29179 ft 423 kts 134°
2026-05-01 12:52 40.89299 29.77200 29188 ft 420 kts 134°
2026-05-01 12:52 40.84075 29.86523 29179 ft 421 kts 134°
2026-05-01 12:53 40.78843 29.95837 29184 ft 421 kts 134°
2026-05-01 12:54 40.75353 30.02035 29184 ft 420 kts 134°
2026-05-01 12:54 40.72319 30.08620 29184 ft 429 kts 123°
2026-05-01 12:54 40.71186 30.12284 29180 ft 434 kts 117°
2026-05-01 12:55 40.68289 30.23616 29184 ft 435 kts 116°
2026-05-01 12:56 40.66510 30.31292 29184 ft 443 kts 109°
2026-05-01 12:56 40.65712 30.39386 29173 ft 446 kts 102°
2026-05-01 12:57 40.65092 30.47516 29168 ft 446 kts 102°
2026-05-01 12:57 40.64084 30.59654 29165 ft 446 kts 103°
2026-05-01 12:58 40.63388 30.67767 29161 ft 444 kts 103°
2026-05-01 12:59 40.61473 30.79191 28935 ft 410 kts 114°
2026-05-01 12:59 40.60691 30.82783 28677 ft 406 kts 114°
2026-05-01 12:59 40.59139 30.89925 27869 ft 406 kts 113°
2026-05-01 13:00 40.57868 30.95865 27300 ft 404 kts 113°
2026-05-01 13:00 40.57110 30.99429 26985 ft 402 kts 113°
2026-05-01 13:01 40.55367 31.07609 26160 ft 398 kts 112°
2026-05-01 13:01 40.54620 31.11108 25832 ft 396 kts 112°
2026-05-01 13:01 40.53377 31.16919 25327 ft 393 kts 112°
2026-05-01 13:02 40.52637 31.20364 24999 ft 391 kts 112°
2026-05-01 13:07 40.37657 31.89168 19107 ft 356 kts 112°
2026-05-01 13:07 40.36968 31.92282 18808 ft 356 kts 113°
2026-05-01 13:07 40.36280 31.95389 18544 ft 354 kts 113°
2026-05-01 13:08 40.35578 31.98478 18282 ft 351 kts 114°
2026-05-01 13:08 40.34872 32.01537 18040 ft 350 kts 114°
2026-05-01 13:08 40.34166 32.04586 17817 ft 347 kts 114°
2026-05-01 13:08 40.33570 32.07612 17567 ft 350 kts 105°
2026-05-01 13:09 40.33365 32.10808 17300 ft 355 kts 96°
2026-05-01 13:09 40.33563 32.14061 17042 ft 359 kts 86°
2026-05-01 13:09 40.33957 32.17298 16793 ft 359 kts 85°
2026-05-01 13:09 40.34378 32.20520 16528 ft 358 kts 85°
2026-05-01 13:10 40.34780 32.23733 16317 ft 356 kts 85°
2026-05-01 13:10 40.35162 32.26935 16084 ft 354 kts 86°
2026-05-01 13:10 40.35531 32.30126 15846 ft 353 kts 86°
2026-05-01 13:10 40.35880 32.33294 15599 ft 347 kts 90°
2026-05-01 13:11 40.35730 32.36384 15239 ft 334 kts 110°
2026-05-01 13:11 40.35127 32.39324 14913 ft 334 kts 112°
2026-05-01 13:11 40.34520 32.42229 14698 ft 334 kts 111°
2026-05-01 13:11 40.33922 32.45152 14505 ft 331 kts 111°
2026-05-01 13:12 40.33379 32.47858 14279 ft 329 kts 111°
2026-05-01 13:12 40.32804 32.50761 13936 ft 328 kts 110°
2026-05-01 13:12 40.32236 32.53646 13579 ft 326 kts 110°
2026-05-01 13:12 40.31673 32.56512 13226 ft 324 kts 110°
2026-05-01 13:13 40.31115 32.59359 12876 ft 321 kts 110°
2026-05-01 13:13 40.30558 32.62186 12541 ft 317 kts 111°
2026-05-01 13:13 40.29670 32.64675 12391 ft 290 kts 136°
2026-05-01 13:13 40.28178 32.66255 12269 ft 267 kts 161°
2026-05-01 13:14 40.26475 32.67008 12151 ft 252 kts 173°
2026-05-01 13:14 40.24781 32.67297 12022 ft 239 kts 187°
2026-05-01 13:14 40.23175 32.66972 11788 ft 232 kts 197°
2026-05-01 13:14 40.21639 32.66456 11531 ft 230 kts 198°
2026-05-01 13:15 40.20095 32.65917 11240 ft 229 kts 198°
2026-05-01 13:15 40.18556 32.65389 10952 ft 228 kts 198°
2026-05-01 13:15 40.17019 32.64874 10656 ft 227 kts 198°
2026-05-01 13:15 40.15462 32.64359 10394 ft 236 kts 198°
2026-05-01 13:16 40.13846 32.63830 10086 ft 242 kts 197°
2026-05-01 13:16 40.12198 32.63297 9756 ft 245 kts 196°
2026-05-01 13:16 40.10479 32.63345 9240 ft 257 kts 162°
2026-05-01 13:17 40.07097 32.68752 8397 ft 256 kts 121°
2026-05-01 13:17 40.06227 32.70748 8208 ft 251 kts 121°
2026-05-01 13:18 40.04415 32.74497 8018 ft 240 kts 128°
2026-05-01 13:18 40.03416 32.76244 8044 ft 241 kts 129°
2026-05-01 13:18 40.02414 32.78002 7895 ft 241 kts 128°
2026-05-01 13:18 40.01419 32.79763 7628 ft 240 kts 128°
2026-05-01 13:19 40.00449 32.81490 7488 ft 231 kts 128°
2026-05-01 13:19 39.99519 32.83148 7338 ft 221 kts 126°
2026-05-01 13:19 39.99403 32.86840 6402 ft 221 kts 46°
2026-05-01 13:20 40.00599 32.88133 5777 ft 229 kts 32°
2026-05-01 13:20 40.01892 32.89314 5601 ft 221 kts 31°
2026-05-01 13:20 40.03145 32.90420 5437 ft 212 kts 30°
2026-05-01 13:21 40.05556 32.92594 4938 ft 208 kts 30°
2026-05-01 13:21 40.06754 32.93549 4785 ft 199 kts 31°
2026-05-01 13:21 40.07925 32.94640 4429 ft 229 kts 33°
2026-05-01 13:21 40.09235 32.95967 6030 ft 232 kts 38°
2026-05-01 13:22 40.09730 32.96534 7020 ft 224 kts 38°
2026-05-01 13:23 40.09818 32.96636 7099 ft 226 kts 38°